Temp
83 82 82 82 83 84 83 82 82 82 80 80 79 79 80 80 81 81 82 82 82 81 81 80 80 79 80 81 79 80 80 78 77 76 76 77 77 76 76 75 75 76
82 82 83 83 82 83 83 83 83 82 81 80 81 81 80 81 81 82 82 82 82 81 81 81 80 80 80 80 79 78 77 78 77 80 77 77 76 76 75 75 75 75
83 82 82 82 82 82 82 83 83 83 82 81 81 81 80 81 81 82 82 82 82 81 80 80 80 80 80 80 79 78 78 78 78 78 77 76 76 75 75 75 74 74
82 82 83 83 83 83 83 83 83 83 83 81 81 82 82 81 81 81 82 81 81 81 80 80 79 81 81 80 79 78 78 79 79 78 77 76 76 77 76 75 74 75
82 82 83 83 84 84 83 83 83 83 83 81 81 81 81 81 81 82 81 80 81 80 79 80 80 80 79 79 80 77 76 77 78 77 76 75 76 76 78 78 76 75
83 84 84 84 83 83 82 83 84 83 83 81 80 81 82 83 84 83 81 81 81 80 80 80 80 79 79 79 78 77 76 76 76 76 76 75 76 77 77 78 77 77
83 83 83 84 84 84 82 83 83 83 83 82 83 81 83 84 83 83 83 82 82 81 82 80 79 78 78 78 78 76 76 77 78 77 75 76 76 76 77 76 76 76
83 83 84 84 83 83 82 83 83 83 82 82 81 82 85 85 83 82 83 82 82 82 82 81 79 79 79 78 77 75 75 76 77 77 76 77 75 76 75 74 74 74
83 83 84 83 82 82 82 83 83 83 83 81 81 82 84 84 82 83 82 82 82 81 82 80 79 79 78 77 76 76 76 76 77 77 76 75 75 74 75 74 73 73
82 83 83 83 82 82 82 82 83 83 83 81 82 83 83 82 84 84 84 83 82 82 82 80 79 78 78 77 77 77 77 77 76 75 75 75 75 75 75 74 73 72
82 83 82 82 82 82 81 82 82 83 83 83 82 82 83 83 83 84 83 83 81 82 81 80 79 79 77 76 77 77 78 77 76 75 75 75 75 74 73 74 73 72
81 82 82 82 82 81 82 82 82 83 83 83 83 82 82 82 82 82 82 83 84 83 84 82 80 79 78 78 78 78 77 76 75 75 75 76 75 74 75 75 73 73
83 82 82 82 82 81 81 82 82 82 82 83 83 82 82 81 82 82 81 83 83 84 84 83 81 80 79 79 79 79 77 77 74 75 75 75 75 75 75 75 74 74
83 83 83 83 82 82 82 82 82 82 82 82 81 81 81 82 82 81 81 82 83 84 84 82 81 80 80 80 79 78 76 75 74 73 74 74 74 75 74 74 74 74
83 84 84 83 83 82 82 81 81 81 81 81 80 80 80 82 83 82 81 82 84 83 84 83 81 79 80 78 78 77 75 73 73 73 73 73 73 74 74 74 74 73
84 83 83 83 82 81 81 81 81 81 80 80 79 80 81 82 83 81 81 81 82 83 82 80 80 80 71 64 66 75 75 74 72 72 73 74 72 72 72 72 73 73
84 84 83 82 82 82 82 81 81 80 79 79 79 79 80 81 81 81 80 81 82 81 80 79 78 78 57 55 55 59 72 73 72 71 73 74 72 71 70 71 71 73
85 84 83 83 83 83 83 83 81 79 78 78 78 78 78 80 80 80 79 80 80 81 79 77 78 58 52 53 53 54 61 73 72 72 72 72 72 72 71 71 70 71
86 85 83 83 83 82 82 81 81 79 78 77 76 76 77 78 79 78 78 79 80 80 78 77 75 51 52 51 52 52 54 65 74 72 71 71 72 72 72 71 70 69
85 85 83 83 82 82 82 82 80 79 77 77 76 75 75 77 78 77 78 78 79 79 78 77 73 53 50 50 51 50 50 59 74 72 71 72 72 72 71 70 69 68
85 84 83 83 83 82 81 81 79 78 77 76 75 75 75 75 76 76 76 77 78 79 77 75 71 49 49 49 49 50 49 56 73 72 71 72 72 71 71 70 70 69
85 84 83 83 82 81 80 80 78 77 76 76 75 75 76 76 75 76 76 76 77 77 76 75 66 47 48 48 48 49 48 66 71 72 72 71 71 71 71 71 70 69
85 84 83 82 82 80 80 78 77 77 77 76 74 73 74 74 74 74 75 76 75 76 75 74 65 50 47 47 48 47 53 68 70 71 70 70 70 70 71 71 70 70
86 85 83 82 81 79 78 77 78 78 77 76 74 73 72 74 74 74 75 75 75 75 75 73 66 53 46 47 47 47 57 67 69 71 68 69 69 70 71 70 70 63
86 85 84 81 80 80 78 77 77 76 75 73 74 75 73 74 73 73 74 74 75 75 66 70 66 54 45 46 46 47 58 67 68 69 67 68 69 68 69 70 70 64
85 84 83 81 80 79 79 78 77 75 73 72 72 74 73 73 72 73 73 74 75 74 72 72 66 59 51 45 47 47 53 67 68 68 66 66 68 68 67 69 69 67
MSLP
1008.68 1008.88 1009.40 1009.72 1009.80 1009.88 1010.24 1010.56 1010.60 1010.88 1011.24 1011.64 1012.08 1012.36 1012.60 1012.76 1012.84 1013.00 1013.20 1013.44 1013.72 1014.04 1014.24 1014.40 1014.60 1014.88 1015.00 1015.08 1015.36 1015.60 1015.84 1016.12 1016.40 1016.60 1016.80 1016.88 1017.00 1017.16 1017.40 1017.52 1017.52 1017.52
1008.24 1008.32 1008.64 1009.12 1009.48 1009.56 1009.68 1009.96 1010.16 1010.32 1010.76 1011.04 1011.40 1011.80 1012.08 1012.36 1012.56 1012.60 1012.88 1013.16 1013.44 1013.72 1013.88 1014.16 1014.40 1014.64 1014.80 1014.92 1015.16 1015.48 1015.68 1015.84 1016.20 1016.04 1016.44 1016.68 1016.84 1017.00 1017.20 1017.28 1017.44 1017.48
1007.76 1008.00 1008.24 1008.64 1009.00 1009.28 1009.40 1009.60 1009.96 1010.00 1010.24 1010.60 1010.88 1011.20 1011.64 1011.88 1012.16 1012.32 1012.48 1012.72 1013.04 1013.36 1013.68 1013.96 1014.16 1014.32 1014.48 1014.72 1014.96 1015.36 1015.52 1015.72 1015.84 1015.88 1016.20 1016.44 1016.60 1016.88 1017.00 1017.16 1017.36 1017.52
1007.16 1007.40 1007.72 1008.08 1008.48 1008.92 1009.08 1009.36 1009.72 1009.92 1009.84 1010.24 1010.52 1010.68 1011.00 1011.28 1011.64 1011.96 1012.20 1012.48 1012.72 1013.08 1013.44 1013.68 1013.88 1014.04 1014.28 1014.48 1014.76 1015.12 1015.36 1015.40 1015.52 1015.76 1016.08 1016.24 1016.32 1016.44 1016.56 1016.76 1017.08 1017.24
1006.72 1006.92 1007.24 1007.68 1008.04 1008.40 1008.68 1009.04 1009.40 1009.56 1009.64 1009.76 1010.12 1010.40 1010.72 1010.92 1011.16 1011.44 1011.84 1012.16 1012.40 1012.80 1013.16 1013.40 1013.52 1013.76 1014.08 1014.36 1014.52 1015.00 1015.16 1015.36 1015.40 1015.68 1015.96 1016.24 1016.20 1016.28 1016.04 1016.12 1016.52 1016.92
1006.00 1006.16 1006.72 1007.28 1007.64 1008.04 1008.48 1008.72 1008.88 1009.28 1009.48 1009.60 1009.88 1010.08 1010.24 1010.24 1010.44 1010.84 1011.40 1011.80 1012.04 1012.40 1012.84 1013.00 1013.24 1013.60 1013.88 1014.04 1014.32 1014.72 1014.96 1015.16 1015.32 1015.56 1015.92 1016.16 1016.12 1016.08 1016.12 1016.12 1016.32 1016.52
1005.76 1005.76 1006.24 1006.64 1007.20 1007.52 1007.96 1008.20 1008.48 1008.76 1008.96 1009.16 1009.52 1009.80 1009.64 1009.76 1010.04 1010.32 1010.76 1011.16 1011.56 1011.92 1012.24 1012.64 1013.04 1013.44 1013.60 1013.76 1014.16 1014.52 1014.64 1014.80 1015.04 1015.36 1015.72 1015.84 1015.84 1016.08 1016.20 1016.44 1016.48 1016.48
1005.32 1005.52 1005.76 1006.24 1006.80 1007.20 1007.60 1007.76 1008.04 1008.28 1008.48 1008.84 1009.28 1009.28 1009.12 1009.28 1009.76 1009.96 1010.24 1010.76 1011.20 1011.44 1011.68 1012.20 1012.72 1013.08 1013.36 1013.64 1014.00 1014.28 1014.48 1014.68 1014.80 1015.04 1015.44 1015.52 1015.72 1015.96 1016.28 1016.40 1016.48 1016.56
1004.80 1005.16 1005.44 1005.84 1006.40 1006.80 1007.16 1007.28 1007.52 1007.80 1008.00 1008.48 1008.88 1008.92 1008.80 1008.88 1009.36 1009.56 1009.92 1010.32 1010.76 1011.00 1011.32 1011.84 1012.28 1012.72 1013.04 1013.44 1013.76 1014.00 1014.32 1014.56 1014.52 1014.64 1015.12 1015.36 1015.68 1015.96 1016.04 1016.16 1016.36 1016.44
1004.44 1004.68 1004.96 1005.32 1005.88 1006.24 1006.64 1006.84 1007.00 1007.32 1007.56 1008.08 1008.44 1008.44 1008.64 1008.80 1008.92 1009.16 1009.40 1009.76 1010.16 1010.48 1010.76 1011.32 1011.84 1012.28 1012.72 1013.16 1013.40 1013.64 1013.92 1014.24 1014.56 1014.80 1014.96 1015.28 1015.52 1015.68 1015.80 1015.92 1016.16 1016.36
1003.80 1004.08 1004.52 1004.88 1005.28 1005.56 1006.00 1006.28 1006.56 1006.80 1007.08 1007.56 1007.96 1008.12 1008.24 1008.56 1008.76 1008.72 1009.00 1009.32 1009.72 1010.08 1010.44 1010.88 1011.32 1011.80 1012.40 1012.88 1013.08 1013.24 1013.52 1013.88 1014.40 1014.52 1014.72 1015.00 1015.20 1015.44 1015.56 1015.72 1015.96 1016.16
1003.28 1003.48 1003.92 1004.32 1004.72 1005.08 1005.48 1005.80 1006.08 1006.32 1006.68 1007.00 1007.36 1007.76 1007.92 1008.12 1008.28 1008.36 1008.56 1008.88 1009.24 1009.52 1009.80 1010.32 1010.80 1011.24 1011.84 1012.40 1012.72 1012.96 1013.32 1013.64 1014.04 1014.20 1014.44 1014.76 1015.04 1015.24 1015.32 1015.48 1015.76 1015.92
1002.60 1002.88 1003.24 1003.72 1004.12 1004.56 1004.96 1005.36 1005.72 1005.96 1006.20 1006.60 1006.84 1007.24 1007.56 1007.84 1007.88 1008.08 1008.24 1008.48 1008.80 1009.04 1009.32 1009.68 1010.20 1010.68 1011.16 1011.76 1012.28 1012.60 1013.04 1013.48 1013.76 1014.00 1014.24 1014.56 1014.80 1014.96 1015.08 1015.24 1015.48 1015.64
1001.92 1002.20 1002.64 1003.04 1003.52 1004.04 1004.52 1004.88 1005.24 1005.52 1005.88 1006.12 1006.52 1006.96 1007.12 1007.28 1007.48 1007.64 1007.88 1008.20 1008.36 1008.60 1008.88 1009.32 1009.72 1010.24 1010.68 1011.24 1011.76 1012.28 1012.92 1013.16 1013.52 1013.84 1014.16 1014.48 1014.64 1014.76 1014.84 1015.04 1015.24 1015.40
1001.36 1001.68 1002.08 1002.60 1003.12 1003.60 1004.12 1004.52 1004.84 1005.20 1005.48 1005.84 1006.20 1006.56 1006.68 1006.80 1006.92 1007.24 1007.64 1007.96 1008.00 1008.28 1008.56 1008.84 1009.28 1009.72 1010.20 1010.84 1011.40 1012.12 1012.44 1012.92 1013.24 1013.60 1013.96 1014.32 1014.48 1014.64 1014.68 1014.92 1015.08 1015.20
1000.88 1001.28 1001.68 1002.20 1002.72 1003.28 1003.64 1003.96 1004.36 1004.84 1005.24 1005.60 1005.88 1006.12 1006.40 1006.52 1006.60 1006.84 1007.24 1007.60 1007.84 1008.08 1008.40 1008.64 1008.96 1009.08 1009.76 1010.56 1011.16 1011.52 1012.04 1012.48 1012.96 1013.32 1013.72 1013.96 1014.36 1014.52 1014.64 1014.76 1014.88 1015.04
1000.36 1000.84 1001.28 1001.76 1002.12 1002.56 1003.00 1003.48 1003.92 1004.44 1004.96 1005.28 1005.52 1005.88 1006.12 1006.28 1006.32 1006.64 1006.92 1007.20 1007.48 1007.72 1008.04 1008.40 1008.68 1008.84 1009.76 1010.44 1010.96 1011.32 1011.60 1012.08 1012.60 1013.12 1013.44 1013.72 1014.12 1014.36 1014.56 1014.72 1014.84 1014.92
999.76 1000.20 1000.76 1001.16 1001.56 1002.08 1002.40 1002.80 1003.40 1004.04 1004.56 1004.88 1005.20 1005.64 1005.88 1005.96 1006.20 1006.32 1006.60 1007.00 1007.20 1007.40 1007.84 1008.16 1008.36 1008.96 1009.56 1010.16 1010.72 1011.16 1011.40 1011.76 1012.20 1012.72 1013.24 1013.64 1013.84 1014.08 1014.28 1014.56 1014.72 1014.80
999.24 999.72 1000.24 1000.64 1001.00 1001.44 1001.96 1002.44 1003.00 1003.64 1004.16 1004.56 1004.92 1005.08 1005.48 1005.80 1005.88 1006.04 1006.36 1006.56 1006.92 1007.32 1007.56 1007.76 1008.28 1009.04 1009.36 1009.88 1010.48 1010.92 1011.32 1011.56 1011.88 1012.44 1012.92 1013.32 1013.60 1013.80 1013.96 1014.24 1014.48 1014.72
998.76 999.28 999.76 1000.12 1000.44 1000.88 1001.32 1001.88 1002.56 1003.08 1003.48 1003.92 1004.44 1004.92 1005.36 1005.52 1005.56 1005.84 1006.00 1006.24 1006.52 1006.88 1007.12 1007.44 1008.08 1008.88 1009.16 1009.68 1010.20 1010.68 1011.12 1011.32 1011.48 1012.12 1012.64 1012.96 1013.32 1013.48 1013.72 1014.00 1014.28 1014.56
998.28 998.68 999.20 999.60 1000.00 1000.40 1000.84 1001.40 1001.96 1002.48 1003.12 1003.60 1004.00 1004.44 1004.92 1005.16 1005.24 1005.52 1005.72 1005.92 1006.20 1006.40 1006.76 1007.12 1007.68 1008.52 1008.92 1009.48 1010.04 1010.52 1010.92 1011.08 1011.12 1011.68 1012.36 1012.76 1012.96 1013.24 1013.48 1013.72 1014.04 1014.28
997.68 998.20 998.60 999.04 999.48 999.88 1000.44 1001.00 1001.52 1002.04 1002.52 1002.92 1003.44 1004.12 1004.48 1004.76 1004.96 1005.16 1005.44 1005.60 1005.80 1006.16 1006.56 1006.68 1007.56 1008.20 1008.64 1009.28 1009.84 1010.28 1010.76 1010.92 1011.00 1011.20 1011.80 1012.56 1012.76 1013.00 1013.28 1013.48 1013.76 1014.04
997.04 997.56 998.04 998.48 998.92 999.48 1000.00 1000.56 1001.08 1001.56 1002.00 1002.44 1003.16 1003.68 1004.08 1004.36 1004.52 1004.84 1004.96 1005.20 1005.64 1005.88 1006.12 1006.24 1007.24 1008.00 1008.32 1009.00 1009.48 1010.04 1010.60 1010.72 1011.00 1011.20 1011.88 1012.36 1012.60 1012.80 1013.04 1013.24 1013.48 1013.76
996.36 996.84 997.44 997.84 998.32 998.88 999.44 999.96 1000.44 1000.88 1001.36 1001.72 1002.48 1003.12 1003.52 1003.72 1004.12 1004.60 1004.68 1004.80 1005.20 1005.44 1005.56 1005.80 1006.68 1007.80 1008.24 1008.80 1009.28 1009.76 1009.96 1010.32 1010.68 1010.96 1011.76 1012.12 1012.40 1012.64 1012.80 1013.04 1013.28 1013.64
995.80 996.28 996.80 997.32 997.76 998.20 998.88 999.60 1000.04 1000.48 1000.80 1001.36 1001.96 1002.40 1003.00 1003.44 1004.00 1004.32 1004.40 1004.56 1004.84 1005.08 1005.40 1005.60 1006.28 1007.64 1008.20 1008.60 1009.16 1009.56 1009.76 1010.00 1010.40 1010.88 1011.48 1011.80 1012.08 1012.48 1012.64 1012.84 1013.16 1013.60
995.44 995.88 996.20 996.84 997.44 997.96 998.48 999.08 999.64 1000.28 1000.68 1001.32 1001.80 1002.20 1002.72 1003.16 1003.68 1003.88 1004.16 1004.40 1004.56 1005.00 1005.48 1005.44 1006.08 1007.32 1008.20 1008.52 1008.96 1009.40 1009.48 1009.60 1010.08 1010.64 1011.20 1011.52 1011.76 1012.16 1012.56 1012.76 1012.92 1013.40
Wind_Speed
16 13 14 14 14 13 14 14 13 14 14 14 14 13 14 13 14 14 14 13 13 12 11 11 11 10 9 10 10 10 9 9 9 8 10 10 9 9 8 9 10 8
18 15 13 14 13 12 13 15 14 15 15 14 14 14 12 13 14 14 14 15 14 12 12 12 11 11 11 10 10 10 9 9 9 8 7 9 7 7 8 9 8 7
19 16 16 17 15 15 15 14 14 13 14 15 14 13 13 13 14 14 13 14 14 13 13 12 12 11 11 10 10 10 10 10 10 8 7 8 8 8 9 8 7 9
20 17 16 16 15 16 16 14 14 15 14 13 15 14 13 12 14 15 14 15 14 13 13 12 12 12 11 11 11 9 10 10 9 8 7 6 7 10 10 9 9 9
18 16 16 16 15 16 13 15 17 17 15 13 13 14 14 14 15 15 14 14 14 14 12 13 13 13 12 11 12 10 10 8 8 8 8 9 9 9 9 10 10 11
17 17 17 17 17 17 16 16 17 18 16 15 14 14 16 17 16 16 16 16 15 14 13 13 13 12 13 13 12 10 9 9 8 10 10 10 10 9 9 10 11 12
16 17 19 18 19 19 17 18 15 15 16 15 14 16 16 16 17 17 17 17 16 15 16 13 13 12 11 11 11 11 10 11 11 11 11 11 10 11 10 10 10 10
17 16 16 17 18 19 17 18 17 15 13 14 16 18 17 17 17 15 16 17 16 17 16 15 15 14 13 11 11 12 10 9 12 12 13 11 11 11 11 9 9 11
17 17 17 18 19 18 19 19 17 15 15 15 15 16 17 17 17 17 18 19 18 17 17 15 15 14 12 13 12 14 13 12 13 13 13 12 11 11 11 10 10 10
18 17 18 18 19 18 20 19 17 15 15 15 16 16 17 15 17 19 18 18 18 17 17 15 15 14 14 13 15 15 15 14 12 11 11 11 10 10 10 10 10 10
19 18 18 18 18 18 20 19 18 16 15 17 17 17 17 17 16 17 18 18 17 19 19 16 15 15 15 13 13 13 14 14 12 11 10 10 10 10 10 10 10 10
19 18 19 19 20 19 20 18 17 16 16 16 18 19 18 17 18 17 17 19 19 19 19 18 16 15 16 16 16 15 14 14 11 11 10 10 10 10 10 10 10 11
19 19 18 19 18 19 17 17 18 16 16 18 16 17 18 18 17 18 15 18 19 19 19 19 17 15 16 16 17 16 15 13 11 10 11 10 10 10 10 10 10 10
18 18 19 19 17 18 18 16 18 18 18 17 15 16 18 19 19 18 14 16 18 18 18 16 15 14 16 16 16 16 13 12 11 10 10 10 10 10 10 10 11 10
17 17 16 17 17 18 19 18 17 16 16 15 14 15 14 18 18 17 16 18 19 19 19 17 16 15 15 15 16 15 13 12 12 11 10 10 10 11 10 11 10 10
18 16 17 17 18 18 19 20 18 16 15 15 16 17 17 17 17 15 16 17 19 19 18 16 14 14 13 18 16 13 13 11 10 10 11 11 10 11 11 11 11 10
18 18 18 19 19 19 20 21 20 15 16 18 16 16 17 17 16 16 14 17 19 20 20 17 14 11 18 19 17 16 14 12 12 11 12 12 11 11 11 11 11 11
18 19 19 19 19 20 20 20 17 17 16 16 15 17 16 17 18 16 14 15 16 19 19 15 12 15 22 20 18 18 14 12 11 11 11 11 11 11 10 11 11 11
18 19 20 19 19 20 19 19 19 17 19 17 17 15 15 17 18 15 14 17 16 19 17 15 11 18 21 22 19 18 16 14 11 11 11 11 11 12 12 11 11 10
19 19 20 20 20 19 20 20 20 21 19 16 14 12 12 15 19 17 14 15 17 18 16 14 12 19 22 22 21 19 18 14 12 12 10 12 12 12 11 11 11 10
20 20 20 20 20 20 19 21 20 20 18 15 12 14 15 15 17 16 13 14 16 18 14 15 11 23 22 22 21 20 19 14 11 11 10 11 11 11 11 11 11 11
20 20 20 19 20 20 20 21 22 20 19 18 15 14 15 15 11 13 14 15 15 18 14 15 12 24 23 22 22 20 20 10 10 12 12 11 11 11 11 11 11 11
20 21 20 20 20 20 21 22 21 22 19 15 13 11 14 14 13 12 13 13 15 18 16 14 13 21 24 23 23 22 16 10 10 9 10 11 11 11 11 11 11 12
20 21 20 20 20 21 21 20 20 18 20 16 16 17 14 13 12 13 12 13 16 20 17 14 12 18 24 23 23 23 19 13 11 12 11 11 11 11 10 10 12 14
19 20 20 20 20 19 18 20 18 19 16 14 15 14 13 12 12 12 13 12 15 17 15 13 12 17 23 23 23 23 18 11 12 11 12 11 11 11 11 10 10 10
16 18 18 18 19 17 17 19 15 13 11 13 13 14 12 12 12 12 14 16 16 16 11 11 12 13 18 23 23 23 21 14 11 11 11 12 11 11 11 10 10 10
Wind_Direction
201 190 195 201 207 205 200 197 189 191 193 191 196 195 201 201 200 203 203 203 203 204 203 206 201 202 206 208 201 201 206 200 200 200 214 216 222 224 226 220 221 224
202 194 197 202 205 207 205 205 197 191 195 194 195 192 196 199 202 203 200 203 201 202 200 203 201 201 203 204 200 204 207 202 206 207 208 212 219 221 228 229 224 223
204 198 198 202 203 205 206 201 204 195 194 196 192 193 192 197 199 201 202 203 200 198 200 200 202 202 202 199 194 200 207 207 210 208 213 216 209 212 213 219 222 221
201 197 199 203 204 208 206 203 204 203 200 192 193 197 195 195 196 199 200 199 201 199 200 198 202 202 201 198 197 197 204 209 204 207 207 214 218 216 207 194 207 216
195 194 200 207 208 210 206 204 205 205 202 194 190 193 195 198 196 194 197 198 199 199 200 200 200 201 200 198 198 198 201 209 200 200 211 216 219 224 227 211 203 213
194 193 198 206 208 209 208 204 204 206 204 197 187 196 199 200 197 194 193 197 197 197 199 199 198 194 200 201 196 196 196 203 198 202 207 215 218 214 222 227 224 223
196 193 199 204 208 208 208 206 206 204 205 201 191 201 202 198 195 195 195 197 195 196 198 195 192 193 197 200 190 200 200 204 206 202 209 214 217 214 216 217 220 223
196 197 199 203 208 209 208 209 205 203 202 194 198 203 203 199 193 196 192 194 197 198 199 192 195 194 195 195 192 201 197 197 211 200 210 216 214 215 206 206 207 211
193 196 197 199 204 209 209 208 203 200 198 196 200 203 204 200 195 194 191 193 196 197 194 188 191 194 191 195 196 202 201 201 213 206 209 215 210 209 205 202 205 206
193 195 197 198 203 207 210 206 202 198 197 195 201 206 200 200 198 197 195 197 197 198 195 188 189 191 189 191 202 204 203 204 200 189 196 205 209 206 208 202 202 201
189 191 196 198 202 206 208 206 204 198 194 194 200 204 199 199 200 199 198 198 197 196 197 190 188 188 187 193 205 205 205 202 194 191 194 202 208 207 209 204 199 201
190 191 195 198 201 205 209 206 204 203 196 193 201 203 201 200 203 198 199 198 198 199 200 195 191 188 187 198 205 202 201 200 192 193 193 208 206 207 205 202 199 199
192 192 192 197 200 203 205 204 201 200 198 198 199 199 199 200 202 200 197 200 199 201 202 198 195 192 194 195 204 201 198 191 186 189 204 213 208 204 203 199 200 199
193 193 193 195 196 201 203 201 202 201 202 200 194 196 199 202 202 200 193 199 202 202 201 197 190 188 196 198 202 195 188 181 179 182 194 196 203 202 200 197 198 199
193 194 193 192 194 200 203 203 201 200 196 193 191 198 201 205 203 197 193 200 203 201 200 200 194 191 195 198 196 183 177 175 177 182 188 195 198 199 198 197 196 198
195 193 190 190 191 199 202 202 199 197 197 193 189 196 203 206 203 195 195 198 201 198 197 197 195 197 180 175 174 173 171 172 173 179 198 206 197 197 197 197 195 195
193 191 190 190 193 199 201 201 197 191 192 197 191 194 203 204 203 195 193 197 201 199 196 194 189 181 152 158 163 164 167 169 172 178 204 204 197 197 195 194 193 192
193 189 190 191 192 195 200 198 192 192 193 190 189 194 200 203 202 197 191 194 203 198 193 184 184 139 152 152 159 164 166 167 169 177 191 199 197 197 195 193 193 189
193 189 189 190 190 192 195 197 193 189 194 193 189 188 196 203 200 198 193 196 200 197 189 179 171 150 153 158 160 165 162 163 170 176 184 193 196 197 196 193 192 187
192 190 191 190 189 191 193 193 191 195 192 193 188 183 197 203 201 196 196 194 200 200 189 176 164 159 159 163 163 164 164 169 171 175 183 193 195 198 196 195 190 187
192 191 191 189 188 189 190 192 192 195 191 184 176 186 196 200 196 192 194 196 199 200 187 179 159 162 163 166 165 165 169 176 176 175 186 196 197 197 197 193 188 187
191 192 192 188 187 188 190 193 194 191 190 187 178 189 197 198 187 192 198 197 196 197 185 179 153 165 165 166 166 167 169 175 185 196 196 196 194 194 194 193 188 187
192 191 190 189 187 188 189 192 192 193 191 179 174 182 192 188 184 192 198 191 193 202 189 176 155 171 165 166 167 166 165 176 180 184 183 193 189 191 195 192 190 187
194 192 190 188 187 189 189 191 192 192 191 181 182 185 182 181 184 195 197 192 195 203 196 176 157 169 167 167 166 168 169 171 182 191 183 184 187 189 192 191 192 185
196 196 192 189 190 188 185 191 190 190 182 173 183 182 179 181 187 195 197 191 200 206 194 174 150 166 169 166 168 170 171 170 174 178 181 182 183 185 190 192 187 176
199 198 194 190 189 189 188 191 185 176 157 172 185 190 180 178 191 194 193 199 200 203 191 179 150 159 172 167 170 172 174 170 172 177 181 180 182 180 185 193 185 180